Location: Unspecified
(51.5147°N, 7.4673°E)
Time: 05:59:57
(UTC+01:00)

Transit 4A - Pass Details

Date: 25 February 2026
Orbit: 863 x 978 km, 66.8° (Epoch: 14 March)

Event Time Altitude Azimuth Distance (km) Brightness Sun altitude
Exits shadow 06:03:38 12° 301° (WNW) 2,431 9.6 -13.3°
Maximum altitude 06:07:31 22° 345° (NNW) 1,929 9.4 -12.6°
Drops below altitude 10° 06:12:11 10° 35° (NE) 2,664 10.8 -11.9°
Sets 06:15:26 0° 50° (NE) 3,630 11.8 -11.4°
